Location: Doverdale
(52.2833°N, 2.2000°W)
Time: 03:33:21
(UTC+00:00)

ATLAS 2AS CENTAUR R/B - Pass Details

Date: 29 October 2020
Orbit: 939 x 1273 km, 63.7° (Epoch: 23 November)

Event Time Altitude Azimuth Distance (km) Brightness Sun altitude
Rises 20:02:28 0° 315° (NW) 4,158 6.7 -30.5°
Reaches altitude 10° 20:05:21 10° 311° (NW) 3,151 5.9 -30.9°
Maximum altitude 20:12:42 58° 236° (SW) 1,308 3.2 -32.0°
Enters shadow 20:13:44 53° 203° (SSW) 1,358 3.1 -32.2°
